Location: Sungai Bunut
(2.6333°N, 113.7333°E)
Time: 01:48:13
(UTC+00:00)

S-56A Canister/Altair - Pass Details

Date: 10 December 2023
Orbit: 640 x 2488 km, 38.9° (Epoch: 24 February)

Event Time Altitude Azimuth Distance (km) Brightness Sun altitude
Rises 00:41:31 0° 256° (WSW) 4,990 11.3 31.5°
Reaches altitude 10° 00:46:14 10° 270° (W) 3,622 10.6 32.6°
Maximum altitude 00:52:25 21° 314° (NW) 2,388 9.7 33.9°
Drops below altitude 10° 00:57:12 10° 2° (N) 2,698 10.2 34.9°
Sets 01:00:07 0° 19° (NNE) 3,413 10.8 35.6°
